www.pogodaiklimat.ru

Погода и климат >> Архив погоды >> Киргизия >> Бишкек


АРХИВ ПОГОДЫ в Бишкеке

Время (UTC), дата Ветер
(напр.,м/с)
 
Видим.   Явления Облачность Т
(С)
Тd
(С)
f
(%)
Тe
(С)
Тes
(С)
Комфортность P
(гПа)
Po
(гПа)
Тmin
(С)
Tmax
(С)
R
(мм)
R24
(мм)
S
(см)
03 15.09 ЮЗ 1 20 км ясно +17.0 +2.1 37 +18 +22 по сезону 1017.6 931.9
06 15.09 С 2 20 км ясно +22.2 +1.3 25 +22 +33 комфорт 1016.1 932.0
09 15.09 СЗ 2 20 км ясно +26.4 -0.7 17 +24 +34 комфорт 1014.2 931.4
12 15.09 С 1 20 км ясно +26.2 0.0 18 +24 +25 комфорт 1014.0 931.1
15 15.09 Ю 1 н/о ясно +19.2 +1.3 30 +20 +20 по сезону 1017.4 932.4 +28.4
18 15.09 Ю 2 н/о ясно +17.4 +0.2 31 +18 +18 тепло 1017.2 931.6 +28.4
21 15.09 штиль 0 н/о 3/0
[Ci fib]
+12.9 +2.1 48 +13 +13 по сезону 1017.4 930.6
00 16.09 штиль 0 н/о ясно +10.9 +2.3 55 +11 +11 по сезону 1018.2 930.7
03 16.09 штиль 0 20 км ясно +19.3 +1.5 30 +19 +23 тепло 1016.3 931.4
06 16.09 СЗ 2 20 км ясно +25.3 +1.9 22 +24 +35 комфорт 1014.5 931.4
09 16.09 З 2 20 км ясно +27.1 -0.5 16 +25 +34 комфорт 1013.4 930.8
12 16.09 З 2 20 км 3/0
[Ci fib]
+27.1 +0.4 18 +25 +26 комфорт 1013.5 930.9
15 16.09 Ю 2 н/о ясно +20.6 +2.1 29 +22 +22 комфорт 1016.4 931.8 +28.4
18 16.09 Ю 2 н/о ясно +17.2 +2.1 36 +18 +18 тепло 1016.7 931.1 +28.4
21 16.09 штиль 0 н/о ясно +14.1 +3.2 48 +14 +14 по сезону 1016.7 930.4
00 17.09 Ю 1 н/о ясно +13.2 +1.3 44 +14 +14 тепло 1017.1 930.4
03 17.09 штиль 0 20 км ясно +18.9 +3.4 36 +19 +23 тепло 1015.7 930.8
06 17.09 СЗ 1 20 км ясно +24.8 +0.2 20 +23 +37 комфорт 1013.6 930.4
09 17.09 СЗ 2 20 км 3/0
[Ac trans Ci fib]
+27.0 +3.2 22 +26 +34 жарко 1012.3 929.8
12 17.09 З 2 20 км 3/0
[Ac trans]
+27.2 +3.0 21 +26 +26 жарко 1012.5 930.0
15 17.09 Ю 1 н/о ясно +21.2 +3.8 32 +21 +21 комфорт 1015.3 931.0 +28.2
18 17.09 В 1 н/о ясно +19.2 +3.6 36 +21 +21 комфорт 1015.9 931.0 +28.2
21 17.09 штиль 0 н/о ясно +16.6 +2.5 39 +17 +17 тепло 1015.9 930.3
00 18.09 Ю 2 н/о ясно +16.1 +1.3 37 +16 +16 тепло 1016.4 930.5
03 18.09 штиль 0 20 км 8/0
[Ci fib]
+19.3 +3.8 36 +20 +23 тепло 1016.1 931.3
06 18.09 СЗ 1 20 км 8/0
[Ci fib]
+25.9 +4.8 26 +25 +36 комфорт 1014.1 931.2
09 18.09 СЗ 1 20 км 10/0
[Ac trans Ci fib]
+27.0 +3.6 22 +26 +32 жарко 1013.5 930.9
12 18.09 З 1 20 км 10/3 600 м
[Cb cap Ac trans Ci fib]
+27.1 +3.0 21 +26 +26 жарко 1014.0 931.4
15 18.09 Ю 1 н/о 4/0
[Ci fib]
+21.5 +3.0 30 +22 +22 комфорт 1017.2 932.8 +28.5
18 18.09 Ю 1 н/о 3/0
[Ci fib]
+18.5 +6.4 45 +20 +20 тепло 1017.9 932.7 +28.5
21 18.09 штиль 0 н/о ясно +18.0 +6.2 46 +18 +18 тепло 1017.3 932.0
00 19.09 Ю 1 н/о ясно +15.8 +5.1 49 +17 +17 тепло 1017.9 932.0
03 19.09 ЮЗ 1 20 км ясно +20.3 +4.1 34 +22 +25 комфорт 1017.8 933.1
06 19.09 С 1 20 км ясно +27.0 +1.1 19 +25 +38 комфорт 1016.1 933.3
09 19.09 С 2 20 км 1/1 1000 м
[Cu hum]
+28.2 -1.2 15 +26 +34 жарко 1015.0 932.5
12 19.09 С 1 20 км 1/1 1000 м
[Cu hum]
+27.3 +3.2 21 +26 +27 жарко 1015.2 932.5
15 19.09 Ю 1 н/о ясно +21.0 +1.7 28 +22 +22 комфорт 1018.6 934.0 +29.7
18 19.09 Ю 2 н/о ясно +17.8 +1.3 33 +18 +18 тепло 1019.2 933.6 +29.7
21 19.09 штиль 0 н/о ясно +13.9 +2.9 47 +14 +14 по сезону 1019.4 932.7
00 20.09 штиль 0 н/о ясно +12.3 +3.0 53 +12 +12 по сезону 1020.3 933.1
03 20.09 штиль 0 20 км ясно +20.7 +2.7 30 +21 +24 комфорт 1017.6 933.0
06 20.09 З 2 20 км ясно +24.6 +3.0 24 +24 +35 комфорт 1015.7 932.3
09 20.09 СЗ 2 20 км ясно +27.8 -0.7 16 +25 +34 комфорт 1013.3 930.9
12 20.09 С 3 20 км ясно +26.6 -0.2 17 +25 +25 комфорт 1013.1 930.4
15 20.09 штиль 0 н/о ясно +18.1 +2.1 34 +18 +18 по сезону 1016.7 931.1 +28.7
18 20.09 Ю 1 н/о ясно +14.7 +3.8 48 +15 +15 по сезону 1016.0 929.9 +28.7
21 20.09 штиль 0 н/о ясно +12.0 +4.0 58 +12 +12 по сезону 1016.1 929.2
00 21.09 штиль 0 н/о ясно +10.3 +3.8 64 +10 +10 по сезону 1015.9 928.5
03 21.09 штиль 0 20 км ясно +15.9 +1.9 39 +16 +20 по сезону 1014.4 928.7
06 21.09 З 1 20 км 1/0
[Ac trans]
+22.0 +2.3 27 +22 +33 комфорт 1012.0 928.2
09 21.09 З 2 20 км 3/0
[Ac trans]
+25.2 +2.5 23 +24 +31 комфорт 1010.1 927.3
12 21.09 З 2 20 км 6/0
[Ci fib]
+25.0 +1.3 21 +24 +24 комфорт 1010.1 927.3
15 21.09 Ю 1 н/о ясно +19.8 +2.7 32 +21 +21 комфорт 1012.8 928.4 +26.6
18 21.09 штиль 0 н/о 4/0
[Ac trans]
+16.3 +4.1 44 +16 +16 по сезону 1013.9 928.4 +26.6
21 21.09 штиль 0 н/о 10/0
[Ci fib]
+14.1 +4.6 53 +14 +14 по сезону 1013.6 927.5
00 22.09 ЮЗ 1 н/о ясно +12.1 +3.6 56 +12 +12 по сезону 1014.3 927.5

 

Местоположение метеостанции Бишкек (город Бишкек, Киргизия): широта 42.85 долгота 74.53 высота над уровнем моря 760 м.

В архиве по умолчанию представлена погода в Бишкеке за последнюю неделю. Архивные данные за месяц целиком и за предыдущие месяцы, начиная с января 2011 года, Вы можете получить, выбрав интересующий диапазон дат из раскрывающегося списка и нажав кнопку "Ввод!".

Внимание! Время в таблицах - всемирное. Для получения местного времени необходимо прибавить поправку, которая в Бишкеке равна 6 ч.

Смотрите также архив погоды в соседних городах и на ближайших метеорологических станциях:

Погода в Байтике (Чуйская область, Киргизия) (22 км)
Погода в Иссык-Ате (город Бишкек, Киргизия) (28 км)
Погода в Яны-Жере (Чуйская область, Киргизия) (46 км)
Погода в Бериктасе (Жамбылская область, Казахстан) (49 км)
Погода в Кара-Балте (Чуйская область, Киргизия) (58 км)
Погода в Тео-Ашуу (Чуйская область, Киргизия) (58 км)
Погода в Токмоке (Чуйская область, Киргизия) (61 км)
Погода в Кордае (Жамбылская область, Казахстан) (66 км)
Погода в Сусамыре (Чуйская область, Киргизия) (90 км)
Погода в Отаре (Жамбылская область, Казахстан) (96 км)

Пояснения к столбцам:

Ветер - указаны скорость ветра в м/с - средняя за 10 мин, порывы в срок и между сроками (в фигурных скобках) и направление, откуда дует ветер: С - северный, СВ - северо-восточный, В - восточный, ЮВ - юго-восточный, Ю - южный, ЮЗ - юго-западный, З - западный, СЗ - северо-западный.
Видимость - горизонтальная дальность видимости в метрах или километрах. При видимости от 1 до 10 км при отсутствии осадков обычно наблюдается дымка, при ухудшении видимости до 1 км и менее - туман. В сухую погоду видимость может ухудшаться дымом, пылью или мглою.
Явления - указаны атмосферные явления, наблюдавшиеся в срок или в последний час перед сроком; фигурными скобками обозначены явления, наблюдавшиеся между сроками (за 1-3 часа до срока); квадратными скобками обозначены град или гололедные отложения с указанием их диаметра в мм.
Облачность - указаны через наклонную черту общая и нижняя облачность в баллах и высота нижней границы облаков в метрах; квадратными скобками обозначены формы облаков: Ci - перистые, Cs - перисто-слоистые, Cc - перисто-кучевые, Ac - высококучевые, As - высокослоистые, Sc - слоисто-кучевые, Ns - слоисто-дождевые, Cu - кучевые, Cb - кучево-дождевые. Подробнее классификацию облаков см. в Атласе облаков (PDF).
T - Температура воздуха - температура, измеренная на высоте 2 м над землей.
Td - Температура точки росы - температура, при понижении до которой содержащийся в воздухе водяной пар достигнет насыщения.
f - Относительная влажность воздуха - влажноcть воздуха, измеренная на высоте 2 м над землей.
Te - Эффективная температура - температура, которую ощущает одетый по сезону человек в тени. Характеристика душности погоды. При расчете учитывается влияние влажности воздуха и скорости ветра на теплоощущения человека.
Tes - Эффективная температура на солнце - температура, которую ощущает человек, с поправкой на солнечный нагрев. Характеристика знойности погоды. Зависит от высоты солнца над горизонтом, облачности и скорости ветра. Ночью, в пасмурную погоду, а также при ветре 12 м/с и более поправка равна нулю.
P - Атмосферное давление - приведенное к уровню моря атмосферное давление.
Po - Атмосферное давление - измеренное на уровне метеостанции атмосферное давление.
Tmin - Минимальная температура - минимум температуры воздуха на высоте 2 м над землей.
Tmax - Максимальная температура - максимум температуры воздуха на высоте 2 м над землей.
R - Количество осадков - Количество выпавших осадков за период времени, мм. При наведении курсора мыши на число - период времени, за который выпало указанное количество осадков.
R24 - Количество осадков - Количество выпавших осадков за 24 часа, мм.
S - Снежный покров - Высота снежного покрова, см. При наведении курсора мыши на число - состояние снежного покрова и степень покрытия местности в баллах.